Location: Kelshall
(52.0000°N, 0.0500°W)
Time: 08:31:56
(UTC+00:00)

Meteor 1-15 Rocket - Pass Details

Date: 26 January 2021
Orbit: 840 x 907 km, 81.2° (Epoch: 24 February)

Event Time Altitude Azimuth Distance (km) Brightness Sun altitude
Exits shadow 03:40:57 17° 13° (NNE) 2,058 6.4 -37.7°
Drops below altitude 10° 03:42:13 10° 13° (NNE) 2,536 7.0 -37.5°
Sets 03:44:41 0° 14° (NNE) 3,489 7.8 -37.1°
